Вернуться в каталог

STARLINK-31834

АктивенСвязьVLEO
NORAD 59721·PAYLOAD·🇺🇸 United States

Запущен May 10, 2024 с Vandenberg Space Force Base

Loading…

Ближайшие Пролёты (ближайшие 24 часа)

TLE

СвежийSource: CelesTrak SupGP

Эпоха: Sep 14, 2026, 22:31 UTC

1 59721C 24088P   26257.93868056 -.00011939  00000+0 -38370-3 0  2578
2 59721  53.1608 339.9148 0001008  89.7382 157.4956 15.31726214    12

Отслеживайте STARLINK-31834 в реальном времени с AllMySat

Download on the App Store